owner,sensor,date,latitude,longitude,vertical_datum,sea_water_temperature,qcFlag 
SCCF RECON,ioos:station:SCCF:12:1,2010-01-01T00:00:00Z,26.4966,-82.1479,2.5,17.11,2 
SCCF RECON,ioos:station:SCCF:12:1,2010-01-01T01:00:00Z,26.4966,-82.1479,2.5,17.29,2 
SCCF RECON,ioos:station:SCCF:12:1,2010-01-01T02:00:00Z,26.4966,-82.1479,2.5,17.1,2 
SCCF RECON,ioos:station:SCCF:12:1,2010-01-01T03:00:00Z,26.4966,-82.1479,2.5,17.07,2 
SCCF RECON,ioos:station:SCCF:12:1,2010-01-01T04:00:00Z,26.4966,-82.1479,2.5,17.02,2 
SCCF RECON,ioos:station:SCCF:12:1,2010-01-01T05:00:00Z,26.4966,-82.1479,2.5,17.04,2 
SCCF RECON,ioos:station:SCCF:12:1,2010-01-01T06:00:00Z,26.4966,-82.1479,2.5,17.02,2 
SCCF RECON,ioos:station:SCCF:12:1,2010-01-01T07:00:00Z,26.4966,-82.1479,2.5,17.05,2 
SCCF RECON,ioos:station:SCCF:12:1,2010-01-01T08:00:00Z,26.4966,-82.1479,2.5,17.1,2 
SCCF RECON,ioos:station:SCCF:12:1,2010-01-01T09:00:00Z,26.4966,-82.1479,2.5,17.17,2 
SCCF RECON,ioos:station:SCCF:12:1,2010-01-01T10:00:00Z,26.4966,-82.1479,2.5,17.16,2 
SCCF RECON,ioos:station:SCCF:12:1,2010-01-01T11:00:00Z,26.4966,-82.1479,2.5,17.04,2 
SCCF RECON,ioos:station:SCCF:12:1,2010-01-01T12:00:00Z,26.4966,-82.1479,2.5,17.16,2 
SCCF RECON,ioos:station:SCCF:12:1,2010-01-01T13:00:00Z,26.4966,-82.1479,2.5,17.19,2 
SCCF RECON,ioos:station:SCCF:12:1,2010-01-01T14:00:00Z,26.4966,-82.1479,2.5,17.27,2 
SCCF RECON,ioos:station:SCCF:12:1,2010-01-01T15:00:00Z,26.4966,-82.1479,2.5,17.27,2 
SCCF RECON,ioos:station:SCCF:12:1,2010-01-01T16:00:00Z,26.4966,-82.1479,2.5,17.33,2 
SCCF RECON,ioos:station:SCCF:12:1,2010-01-01T17:00:00Z,26.4966,-82.1479,2.5,17.47,2 
SCCF RECON,ioos:station:SCCF:12:1,2010-01-01T18:00:00Z,26.4966,-82.1479,2.5,17.48,2 
SCCF RECON,ioos:station:SCCF:12:1,2010-01-01T19:00:00Z,26.4966,-82.1479,2.5,17.5,2 
SCCF RECON,ioos:station:SCCF:12:1,2010-01-01T20:00:00Z,26.4966,-82.1479,2.5,17.48,2 
SCCF RECON,ioos:station:SCCF:12:1,2010-01-01T21:00:00Z,26.4966,-82.1479,2.5,17.46,2 
SCCF RECON,ioos:station:SCCF:12:1,2010-01-01T22:00:00Z,26.4966,-82.1479,2.5,17.45,2 
SCCF RECON,ioos:station:SCCF:12:1,2010-01-01T23:00:00Z,26.4966,-82.1479,2.5,17.41,2 
SCCF RECON,ioos:station:SCCF:12:1,2010-01-02T00:00:00Z,26.4966,-82.1479,2.5,17.32,2 
SCCF RECON,ioos:station:SCCF:12:1,2010-01-02T01:00:00Z,26.4966,-82.1479,2.5,17.23,2 
SCCF RECON,ioos:station:SCCF:12:1,2010-01-02T02:00:00Z,26.4966,-82.1479,2.5,17.2,2 
SCCF RECON,ioos:station:SCCF:12:1,2010-01-02T03:00:00Z,26.4966,-82.1479,2.5,17.02,2 
SCCF RECON,ioos:station:SCCF:12:1,2010-01-02T04:00:00Z,26.4966,-82.1479,2.5,16.97,2 
SCCF RECON,ioos:station:SCCF:12:1,2010-01-02T05:00:00Z,26.4966,-82.1479,2.5,16.9,2 
SCCF RECON,ioos:station:SCCF:12:1,2010-01-02T06:00:00Z,26.4966,-82.1479,2.5,16.81,2 
SCCF RECON,ioos:station:SCCF:12:1,2010-01-02T07:00:00Z,26.4966,-82.1479,2.5,16.69,2 
SCCF RECON,ioos:station:SCCF:12:1,2010-01-02T08:00:00Z,26.4966,-82.1479,2.5,16.59,2 
SCCF RECON,ioos:station:SCCF:12:1,2010-01-02T09:00:00Z,26.4966,-82.1479,2.5,16.46,2 
SCCF RECON,ioos:station:SCCF:12:1,2010-01-02T10:00:00Z,26.4966,-82.1479,2.5,16.36,2 
SCCF RECON,ioos:station:SCCF:12:1,2010-01-02T11:00:00Z,26.4966,-82.1479,2.5,16.13,2 
SCCF RECON,ioos:station:SCCF:12:1,2010-01-02T12:00:00Z,26.4966,-82.1479,2.5,15.91,2 
SCCF RECON,ioos:station:SCCF:12:1,2010-01-02T13:00:00Z,26.4966,-82.1479,2.5,15.72,2 
SCCF RECON,ioos:station:SCCF:12:1,2010-01-02T14:00:00Z,26.4966,-82.1479,2.5,15.58,2 
SCCF RECON,ioos:station:SCCF:12:1,2010-01-02T15:00:00Z,26.4966,-82.1479,2.5,15.77,2 
SCCF RECON,ioos:station:SCCF:12:1,2010-01-02T16:00:00Z,26.4966,-82.1479,2.5,15.5,2 
SCCF RECON,ioos:station:SCCF:12:1,2010-01-02T17:00:00Z,26.4966,-82.1479,2.5,15.16,2 
SCCF RECON,ioos:station:SCCF:12:1,2010-01-02T18:00:00Z,26.4966,-82.1479,2.5,15.89,2 
SCCF RECON,ioos:station:SCCF:12:1,2010-01-02T19:00:00Z,26.4966,-82.1479,2.5,16.01,2 
SCCF RECON,ioos:station:SCCF:12:1,2010-01-02T20:00:00Z,26.4966,-82.1479,2.5,16.12,2 
SCCF RECON,ioos:station:SCCF:12:1,2010-01-02T21:00:00Z,26.4966,-82.1479,2.5,16.01,2 
SCCF RECON,ioos:station:SCCF:12:1,2010-01-02T22:00:00Z,26.4966,-82.1479,2.5,15.8,2 
SCCF RECON,ioos:station:SCCF:12:1,2010-01-02T23:00:00Z,26.4966,-82.1479,2.5,15.68,2 
SCCF RECON,ioos:station:SCCF:12:1,2010-01-03T00:00:00Z,26.4966,-82.1479,2.5,15.65,2 
SCCF RECON,ioos:station:SCCF:12:1,2010-01-03T01:00:00Z,26.4966,-82.1479,2.5,15.55,2 
SCCF RECON,ioos:station:SCCF:12:1,2010-01-03T02:00:00Z,26.4966,-82.1479,2.5,15.59,2 
SCCF RECON,ioos:station:SCCF:12:1,2010-01-03T03:00:00Z,26.4966,-82.1479,2.5,15.72,2 
SCCF RECON,ioos:station:SCCF:12:1,2010-01-03T04:00:00Z,26.4966,-82.1479,2.5,15.38,2 
SCCF RECON,ioos:station:SCCF:12:1,2010-01-03T05:00:00Z,26.4966,-82.1479,2.5,15.02,2 
SCCF RECON,ioos:station:SCCF:12:1,2010-01-03T06:00:00Z,26.4966,-82.1479,2.5,14.91,2 
SCCF RECON,ioos:station:SCCF:12:1,2010-01-03T07:00:00Z,26.4966,-82.1479,2.5,14.82,2 
SCCF RECON,ioos:station:SCCF:12:1,2010-01-03T08:00:00Z,26.4966,-82.1479,2.5,14.76,2 
SCCF RECON,ioos:station:SCCF:12:1,2010-01-03T09:00:00Z,26.4966,-82.1479,2.5,14.68,2 
SCCF RECON,ioos:station:SCCF:12:1,2010-01-03T10:00:00Z,26.4966,-82.1479,2.5,14.7,2 
SCCF RECON,ioos:station:SCCF:12:1,2010-01-03T11:00:00Z,26.4966,-82.1479,2.5,14.55,2 
SCCF RECON,ioos:station:SCCF:12:1,2010-01-03T12:00:00Z,26.4966,-82.1479,2.5,14.39,2 
SCCF RECON,ioos:station:SCCF:12:1,2010-01-03T13:00:00Z,26.4966,-82.1479,2.5,14.02,2 
SCCF RECON,ioos:station:SCCF:12:1,2010-01-03T14:00:00Z,26.4966,-82.1479,2.5,13.97,2 
SCCF RECON,ioos:station:SCCF:12:1,2010-01-03T15:00:00Z,26.4966,-82.1479,2.5,14.28,2 
SCCF RECON,ioos:station:SCCF:12:1,2010-01-03T16:00:00Z,26.4966,-82.1479,2.5,14.5,2 
SCCF RECON,ioos:station:SCCF:12:1,2010-01-03T17:00:00Z,26.4966,-82.1479,2.5,14.59,2 
SCCF RECON,ioos:station:SCCF:12:1,2010-01-03T18:00:00Z,26.4966,-82.1479,2.5,14.58,2 
SCCF RECON,ioos:station:SCCF:12:1,2010-01-03T19:00:00Z,26.4966,-82.1479,2.5,14.51,2 
SCCF RECON,ioos:station:SCCF:12:1,2010-01-03T20:00:00Z,26.4966,-82.1479,2.5,14.34,2 
SCCF RECON,ioos:station:SCCF:12:1,2010-01-03T21:00:00Z,26.4966,-82.1479,2.5,14.34,2 
SCCF RECON,ioos:station:SCCF:12:1,2010-01-03T22:00:00Z,26.4966,-82.1479,2.5,14.05,2 
SCCF RECON,ioos:station:SCCF:12:1,2010-01-03T23:00:00Z,26.4966,-82.1479,2.5,13.84,2 
SCCF RECON,ioos:station:SCCF:12:1,2010-01-04T00:00:00Z,26.4966,-82.1479,2.5,13.93,2 
SCCF RECON,ioos:station:SCCF:12:1,2010-01-04T01:00:00Z,26.4966,-82.1479,2.5,13.73,2 
SCCF RECON,ioos:station:SCCF:12:1,2010-01-04T02:00:00Z,26.4966,-82.1479,2.5,13.89,2 
SCCF RECON,ioos:station:SCCF:12:1,2010-01-04T03:00:00Z,26.4966,-82.1479,2.5,13.94,2 
SCCF RECON,ioos:station:SCCF:12:1,2010-01-04T04:00:00Z,26.4966,-82.1479,2.5,13.67,2 
SCCF RECON,ioos:station:SCCF:12:1,2010-01-04T05:00:00Z,26.4966,-82.1479,2.5,13.38,2 
SCCF RECON,ioos:station:SCCF:12:1,2010-01-04T06:00:00Z,26.4966,-82.1479,2.5,13.37,2 
SCCF RECON,ioos:station:SCCF:12:1,2010-01-04T07:00:00Z,26.4966,-82.1479,2.5,13.34,2 
SCCF RECON,ioos:station:SCCF:12:1,2010-01-04T08:00:00Z,26.4966,-82.1479,2.5,13.25,2 
SCCF RECON,ioos:station:SCCF:12:1,2010-01-04T09:00:00Z,26.4966,-82.1479,2.5,13.2,2 
SCCF RECON,ioos:station:SCCF:12:1,2010-01-04T10:00:00Z,26.4966,-82.1479,2.5,13.1,2 
SCCF RECON,ioos:station:SCCF:12:1,2010-01-04T11:00:00Z,26.4966,-82.1479,2.5,12.95,2 
SCCF RECON,ioos:station:SCCF:12:1,2010-01-04T12:00:00Z,26.4966,-82.1479,2.5,12.95,2 
SCCF RECON,ioos:station:SCCF:12:1,2010-01-04T13:00:00Z,26.4966,-82.1479,2.5,12.84,2 
SCCF RECON,ioos:station:SCCF:12:1,2010-01-04T14:00:00Z,26.4966,-82.1479,2.5,12.9,2 
SCCF RECON,ioos:station:SCCF:12:1,2010-01-04T15:00:00Z,26.4966,-82.1479,2.5,12.67,2 
SCCF RECON,ioos:station:SCCF:12:1,2010-01-04T16:00:00Z,26.4966,-82.1479,2.5,12.73,2 
SCCF RECON,ioos:station:SCCF:12:1,2010-01-04T17:00:00Z,26.4966,-82.1479,2.5,13.0,2 
SCCF RECON,ioos:station:SCCF:12:1,2010-01-04T18:00:00Z,26.4966,-82.1479,2.5,13.04,2 
SCCF RECON,ioos:station:SCCF:12:1,2010-01-04T19:00:00Z,26.4966,-82.1479,2.5,13.01,2 
SCCF RECON,ioos:station:SCCF:12:1,2010-01-04T20:00:00Z,26.4966,-82.1479,2.5,13.27,2 
SCCF RECON,ioos:station:SCCF:12:1,2010-01-04T21:00:00Z,26.4966,-82.1479,2.5,13.21,2 
SCCF RECON,ioos:station:SCCF:12:1,2010-01-04T22:00:00Z,26.4966,-82.1479,2.5,13.17,2 
SCCF RECON,ioos:station:SCCF:12:1,2010-01-04T23:00:00Z,26.4966,-82.1479,2.5,12.93,2 
SCCF RECON,ioos:station:SCCF:12:1,2010-01-05T00:00:00Z,26.4966,-82.1479,2.5,12.8,2 
SCCF RECON,ioos:station:SCCF:12:1,2010-01-05T01:00:00Z,26.4966,-82.1479,2.5,12.77,2 
SCCF RECON,ioos:station:SCCF:12:1,2010-01-05T02:00:00Z,26.4966,-82.1479,2.5,12.85,2 
SCCF RECON,ioos:station:SCCF:12:1,2010-01-05T03:00:00Z,26.4966,-82.1479,2.5,12.94,2 
SCCF RECON,ioos:station:SCCF:12:1,2010-01-05T04:00:00Z,26.4966,-82.1479,2.5,12.92,2 
SCCF RECON,ioos:station:SCCF:12:1,2010-01-05T05:00:00Z,26.4966,-82.1479,2.5,12.76,2 
SCCF RECON,ioos:station:SCCF:12:1,2010-01-05T06:00:00Z,26.4966,-82.1479,2.5,12.59,2 
SCCF RECON,ioos:station:SCCF:12:1,2010-01-05T07:00:00Z,26.4966,-82.1479,2.5,12.82,2 
SCCF RECON,ioos:station:SCCF:12:1,2010-01-05T08:00:00Z,26.4966,-82.1479,2.5,12.72,2 
SCCF RECON,ioos:station:SCCF:12:1,2010-01-05T09:00:00Z,26.4966,-82.1479,2.5,12.66,2 
SCCF RECON,ioos:station:SCCF:12:1,2010-01-05T10:00:00Z,26.4966,-82.1479,2.5,12.65,2 
SCCF RECON,ioos:station:SCCF:12:1,2010-01-05T11:00:00Z,26.4966,-82.1479,2.5,12.67,2 
SCCF RECON,ioos:station:SCCF:12:1,2010-01-05T12:00:00Z,26.4966,-82.1479,2.5,12.51,2 
SCCF RECON,ioos:station:SCCF:12:1,2010-01-05T13:00:00Z,26.4966,-82.1479,2.5,12.4,2 
SCCF RECON,ioos:station:SCCF:12:1,2010-01-05T14:00:00Z,26.4966,-82.1479,2.5,12.41,2 
SCCF RECON,ioos:station:SCCF:12:1,2010-01-05T15:00:00Z,26.4966,-82.1479,2.5,12.56,2 
SCCF RECON,ioos:station:SCCF:12:1,2010-01-05T16:00:00Z,26.4966,-82.1479,2.5,12.48,2 
SCCF RECON,ioos:station:SCCF:12:1,2010-01-05T17:00:00Z,26.4966,-82.1479,2.5,12.63,2 
SCCF RECON,ioos:station:SCCF:12:1,2010-01-05T18:00:00Z,26.4966,-82.1479,2.5,12.59,2 
SCCF RECON,ioos:station:SCCF:12:1,2010-01-05T19:00:00Z,26.4966,-82.1479,2.5,12.62,2 
SCCF RECON,ioos:station:SCCF:12:1,2010-01-05T20:00:00Z,26.4966,-82.1479,2.5,12.58,2 
SCCF RECON,ioos:station:SCCF:12:1,2010-01-05T21:00:00Z,26.4966,-82.1479,2.5,12.69,2 
SCCF RECON,ioos:station:SCCF:12:1,2010-01-05T22:00:00Z,26.4966,-82.1479,2.5,12.68,2 
SCCF RECON,ioos:station:SCCF:12:1,2010-01-05T23:00:00Z,26.4966,-82.1479,2.5,12.61,2 
SCCF RECON,ioos:station:SCCF:12:1,2010-01-06T00:00:00Z,26.4966,-82.1479,2.5,12.56,2 
SCCF RECON,ioos:station:SCCF:12:1,2010-01-06T01:00:00Z,26.4966,-82.1479,2.5,12.46,2 
SCCF RECON,ioos:station:SCCF:12:1,2010-01-06T02:00:00Z,26.4966,-82.1479,2.5,12.27,2 
SCCF RECON,ioos:station:SCCF:12:1,2010-01-06T03:00:00Z,26.4966,-82.1479,2.5,12.13,2 
SCCF RECON,ioos:station:SCCF:12:1,2010-01-06T04:00:00Z,26.4966,-82.1479,2.5,12.22,2 
SCCF RECON,ioos:station:SCCF:12:1,2010-01-06T05:00:00Z,26.4966,-82.1479,2.5,12.17,2 
SCCF RECON,ioos:station:SCCF:12:1,2010-01-06T06:00:00Z,26.4966,-82.1479,2.5,12.07,2 
SCCF RECON,ioos:station:SCCF:12:1,2010-01-06T07:00:00Z,26.4966,-82.1479,2.5,11.91,2 
SCCF RECON,ioos:station:SCCF:12:1,2010-01-06T08:00:00Z,26.4966,-82.1479,2.5,11.9,2 
SCCF RECON,ioos:station:SCCF:12:1,2010-01-06T09:00:00Z,26.4966,-82.1479,2.5,11.81,2 
SCCF RECON,ioos:station:SCCF:12:1,2010-01-06T10:00:00Z,26.4966,-82.1479,2.5,11.59,2 
SCCF RECON,ioos:station:SCCF:12:1,2010-01-06T11:00:00Z,26.4966,-82.1479,2.5,11.7,2 
SCCF RECON,ioos:station:SCCF:12:1,2010-01-06T12:00:00Z,26.4966,-82.1479,2.5,11.52,2 
SCCF RECON,ioos:station:SCCF:12:1,2010-01-06T13:00:00Z,26.4966,-82.1479,2.5,11.46,2 
SCCF RECON,ioos:station:SCCF:12:1,2010-01-06T14:00:00Z,26.4966,-82.1479,2.5,11.42,2 
SCCF RECON,ioos:station:SCCF:12:1,2010-01-06T15:00:00Z,26.4966,-82.1479,2.5,11.41,2 
SCCF RECON,ioos:station:SCCF:12:1,2010-01-06T16:00:00Z,26.4966,-82.1479,2.5,11.49,2 
SCCF RECON,ioos:station:SCCF:12:1,2010-01-06T17:00:00Z,26.4966,-82.1479,2.5,11.58,2 
SCCF RECON,ioos:station:SCCF:12:1,2010-01-06T18:00:00Z,26.4966,-82.1479,2.5,11.82,2 
SCCF RECON,ioos:station:SCCF:12:1,2010-01-06T19:00:00Z,26.4966,-82.1479,2.5,11.92,2 
SCCF RECON,ioos:station:SCCF:12:1,2010-01-06T20:00:00Z,26.4966,-82.1479,2.5,11.95,2 
SCCF RECON,ioos:station:SCCF:12:1,2010-01-06T21:00:00Z,26.4966,-82.1479,2.5,12.03,2 
SCCF RECON,ioos:station:SCCF:12:1,2010-01-06T22:00:00Z,26.4966,-82.1479,2.5,12.04,2 
SCCF RECON,ioos:station:SCCF:12:1,2010-01-06T23:00:00Z,26.4966,-82.1479,2.5,12.01,2 
SCCF RECON,ioos:station:SCCF:12:1,2010-01-07T00:00:00Z,26.4966,-82.1479,2.5,11.95,2 
SCCF RECON,ioos:station:SCCF:12:1,2010-01-07T01:00:00Z,26.4966,-82.1479,2.5,11.87,2 
SCCF RECON,ioos:station:SCCF:12:1,2010-01-07T02:00:00Z,26.4966,-82.1479,2.5,11.8,2 
SCCF RECON,ioos:station:SCCF:12:1,2010-01-07T03:00:00Z,26.4966,-82.1479,2.5,11.7,2 
SCCF RECON,ioos:station:SCCF:12:1,2010-01-07T04:00:00Z,26.4966,-82.1479,2.5,11.61,2 
SCCF RECON,ioos:station:SCCF:12:1,2010-01-07T05:00:00Z,26.4966,-82.1479,2.5,11.6,2 
SCCF RECON,ioos:station:SCCF:12:1,2010-01-07T06:00:00Z,26.4966,-82.1479,2.5,11.66,2 
SCCF RECON,ioos:station:SCCF:12:1,2010-01-07T07:00:00Z,26.4966,-82.1479,2.5,11.59,2 
SCCF RECON,ioos:station:SCCF:12:1,2010-01-07T08:00:00Z,26.4966,-82.1479,2.5,11.49,2 
SCCF RECON,ioos:station:SCCF:12:1,2010-01-07T09:00:00Z,26.4966,-82.1479,2.5,11.33,2 
SCCF RECON,ioos:station:SCCF:12:1,2010-01-07T10:00:00Z,26.4966,-82.1479,2.5,11.27,2 
SCCF RECON,ioos:station:SCCF:12:1,2010-01-07T11:00:00Z,26.4966,-82.1479,2.5,11.22,2 
SCCF RECON,ioos:station:SCCF:12:1,2010-01-07T12:00:00Z,26.4966,-82.1479,2.5,11.19,2 
SCCF RECON,ioos:station:SCCF:12:1,2010-01-07T13:00:00Z,26.4966,-82.1479,2.5,11.18,2 
SCCF RECON,ioos:station:SCCF:12:1,2010-01-07T14:00:00Z,26.4966,-82.1479,2.5,11.16,2 
SCCF RECON,ioos:station:SCCF:12:1,2010-01-07T15:00:00Z,26.4966,-82.1479,2.5,11.18,2 
SCCF RECON,ioos:station:SCCF:12:1,2010-01-07T16:00:00Z,26.4966,-82.1479,2.5,11.25,2 
SCCF RECON,ioos:station:SCCF:12:1,2010-01-07T17:00:00Z,26.4966,-82.1479,2.5,11.45,2 
SCCF RECON,ioos:station:SCCF:12:1,2010-01-07T18:00:00Z,26.4966,-82.1479,2.5,11.55,2 
SCCF RECON,ioos:station:SCCF:12:1,2010-01-07T19:00:00Z,26.4966,-82.1479,2.5,11.49,2 
SCCF RECON,ioos:station:SCCF:12:1,2010-01-07T20:00:00Z,26.4966,-82.1479,2.5,11.48,2 
SCCF RECON,ioos:station:SCCF:12:1,2010-01-07T21:00:00Z,26.4966,-82.1479,2.5,11.52,2 
SCCF RECON,ioos:station:SCCF:12:1,2010-01-07T22:00:00Z,26.4966,-82.1479,2.5,11.34,2 
SCCF RECON,ioos:station:SCCF:12:1,2010-01-07T23:00:00Z,26.4966,-82.1479,2.5,11.42,2 
SCCF RECON,ioos:station:SCCF:12:1,2010-01-08T00:00:00Z,26.4966,-82.1479,2.5,11.51,2 
SCCF RECON,ioos:station:SCCF:12:1,2010-01-08T01:00:00Z,26.4966,-82.1479,2.5,11.51,2 
SCCF RECON,ioos:station:SCCF:12:1,2010-01-08T02:00:00Z,26.4966,-82.1479,2.5,11.51,2 
SCCF RECON,ioos:station:SCCF:12:1,2010-01-08T03:00:00Z,26.4966,-82.1479,2.5,11.53,2 
SCCF RECON,ioos:station:SCCF:12:1,2010-01-08T04:00:00Z,26.4966,-82.1479,2.5,11.54,2 
SCCF RECON,ioos:station:SCCF:12:1,2010-01-08T05:00:00Z,26.4966,-82.1479,2.5,11.53,2 
SCCF RECON,ioos:station:SCCF:12:1,2010-01-08T06:00:00Z,26.4966,-82.1479,2.5,11.47,2 
SCCF RECON,ioos:station:SCCF:12:1,2010-01-08T07:00:00Z,26.4966,-82.1479,2.5,11.37,2 
SCCF RECON,ioos:station:SCCF:12:1,2010-01-08T08:00:00Z,26.4966,-82.1479,2.5,11.38,2 
SCCF RECON,ioos:station:SCCF:12:1,2010-01-08T09:00:00Z,26.4966,-82.1479,2.5,11.35,2 
SCCF RECON,ioos:station:SCCF:12:1,2010-01-08T10:00:00Z,26.4966,-82.1479,2.5,11.35,2 
SCCF RECON,ioos:station:SCCF:12:1,2010-01-08T11:00:00Z,26.4966,-82.1479,2.5,11.36,2 
SCCF RECON,ioos:station:SCCF:12:1,2010-01-08T12:00:00Z,26.4966,-82.1479,2.5,11.39,2 
SCCF RECON,ioos:station:SCCF:12:1,2010-01-08T13:00:00Z,26.4966,-82.1479,2.5,11.42,2 
SCCF RECON,ioos:station:SCCF:12:1,2010-01-08T14:00:00Z,26.4966,-82.1479,2.5,11.42,2 
SCCF RECON,ioos:station:SCCF:12:1,2010-01-08T15:00:00Z,26.4966,-82.1479,2.5,11.3,2 
SCCF RECON,ioos:station:SCCF:12:1,2010-01-08T16:00:00Z,26.4966,-82.1479,2.5,11.49,2 
SCCF RECON,ioos:station:SCCF:12:1,2010-01-08T17:00:00Z,26.4966,-82.1479,2.5,11.7,2 
SCCF RECON,ioos:station:SCCF:12:1,2010-01-08T18:00:00Z,26.4966,-82.1479,2.5,11.89,2 
SCCF RECON,ioos:station:SCCF:12:1,2010-01-08T19:00:00Z,26.4966,-82.1479,2.5,12.06,2 
SCCF RECON,ioos:station:SCCF:12:1,2010-01-08T20:00:00Z,26.4966,-82.1479,2.5,12.2,2 
SCCF RECON,ioos:station:SCCF:12:1,2010-01-08T21:00:00Z,26.4966,-82.1479,2.5,12.24,2 
SCCF RECON,ioos:station:SCCF:12:1,2010-01-08T22:00:00Z,26.4966,-82.1479,2.5,12.16,2 
SCCF RECON,ioos:station:SCCF:12:1,2010-01-08T23:00:00Z,26.4966,-82.1479,2.5,12.26,2 
SCCF RECON,ioos:station:SCCF:12:1,2010-01-09T00:00:00Z,26.4966,-82.1479,2.5,12.25,2 
SCCF RECON,ioos:station:SCCF:12:1,2010-01-09T01:00:00Z,26.4966,-82.1479,2.5,12.28,2 
SCCF RECON,ioos:station:SCCF:12:1,2010-01-09T02:00:00Z,26.4966,-82.1479,2.5,12.23,2 
SCCF RECON,ioos:station:SCCF:12:1,2010-01-09T03:00:00Z,26.4966,-82.1479,2.5,12.21,2 
SCCF RECON,ioos:station:SCCF:12:1,2010-01-09T04:00:00Z,26.4966,-82.1479,2.5,12.21,2 
SCCF RECON,ioos:station:SCCF:12:1,2010-01-09T05:00:00Z,26.4966,-82.1479,2.5,12.21,2 
SCCF RECON,ioos:station:SCCF:12:1,2010-01-09T06:00:00Z,26.4966,-82.1479,2.5,12.16,2 
SCCF RECON,ioos:station:SCCF:12:1,2010-01-09T07:00:00Z,26.4966,-82.1479,2.5,11.98,2 
SCCF RECON,ioos:station:SCCF:12:1,2010-01-09T08:00:00Z,26.4966,-82.1479,2.5,11.96,2 
SCCF RECON,ioos:station:SCCF:12:1,2010-01-09T09:00:00Z,26.4966,-82.1479,2.5,12.09,2 
SCCF RECON,ioos:station:SCCF:12:1,2010-01-09T10:00:00Z,26.4966,-82.1479,2.5,11.94,2 
SCCF RECON,ioos:station:SCCF:12:1,2010-01-09T11:00:00Z,26.4966,-82.1479,2.5,11.84,2 
SCCF RECON,ioos:station:SCCF:12:1,2010-01-09T12:00:00Z,26.4966,-82.1479,2.5,11.77,2 
SCCF RECON,ioos:station:SCCF:12:1,2010-01-09T13:00:00Z,26.4966,-82.1479,2.5,11.69,2 
SCCF RECON,ioos:station:SCCF:12:1,2010-01-09T14:00:00Z,26.4966,-82.1479,2.5,11.72,2 
SCCF RECON,ioos:station:SCCF:12:1,2010-01-09T15:00:00Z,26.4966,-82.1479,2.5,11.57,2 
SCCF RECON,ioos:station:SCCF:12:1,2010-01-09T16:00:00Z,26.4966,-82.1479,2.5,11.45,2 
SCCF RECON,ioos:station:SCCF:12:1,2010-01-09T17:00:00Z,26.4966,-82.1479,2.5,11.4,2 
SCCF RECON,ioos:station:SCCF:12:1,2010-01-09T18:00:00Z,26.4966,-82.1479,2.5,11.35,2 
SCCF RECON,ioos:station:SCCF:12:1,2010-01-09T19:00:00Z,26.4966,-82.1479,2.5,11.23,2 
SCCF RECON,ioos:station:SCCF:12:1,2010-01-09T20:00:00Z,26.4966,-82.1479,2.5,11.17,2 
SCCF RECON,ioos:station:SCCF:12:1,2010-01-09T21:00:00Z,26.4966,-82.1479,2.5,11.13,2 
SCCF RECON,ioos:station:SCCF:12:1,2010-01-09T22:00:00Z,26.4966,-82.1479,2.5,11.0,2 
SCCF RECON,ioos:station:SCCF:12:1,2010-01-09T23:00:00Z,26.4966,-82.1479,2.5,10.96,2 
SCCF RECON,ioos:station:SCCF:12:1,2010-01-10T00:00:00Z,26.4966,-82.1479,2.5,10.9,2 
SCCF RECON,ioos:station:SCCF:12:1,2010-01-10T01:00:00Z,26.4966,-82.1479,2.5,10.81,2 
SCCF RECON,ioos:station:SCCF:12:1,2010-01-10T02:00:00Z,26.4966,-82.1479,2.5,10.75,2 
SCCF RECON,ioos:station:SCCF:12:1,2010-01-10T03:00:00Z,26.4966,-82.1479,2.5,10.64,2 
SCCF RECON,ioos:station:SCCF:12:1,2010-01-10T04:00:00Z,26.4966,-82.1479,2.5,10.57,2 
SCCF RECON,ioos:station:SCCF:12:1,2010-01-10T05:00:00Z,26.4966,-82.1479,2.5,10.42,2 
SCCF RECON,ioos:station:SCCF:12:1,2010-01-10T06:00:00Z,26.4966,-82.1479,2.5,10.19,2 
SCCF RECON,ioos:station:SCCF:12:1,2010-01-10T07:00:00Z,26.4966,-82.1479,2.5,10.03,2 
SCCF RECON,ioos:station:SCCF:12:1,2010-01-10T08:00:00Z,26.4966,-82.1479,2.5,9.92,2 
SCCF RECON,ioos:station:SCCF:12:1,2010-01-10T09:00:00Z,26.4966,-82.1479,2.5,9.92,2 
SCCF RECON,ioos:station:SCCF:12:1,2010-01-10T10:00:00Z,26.4966,-82.1479,2.5,9.79,2 
SCCF RECON,ioos:station:SCCF:12:1,2010-01-10T11:00:00Z,26.4966,-82.1479,2.5,9.55,2 
SCCF RECON,ioos:station:SCCF:12:1,2010-01-10T12:00:00Z,26.4966,-82.1479,2.5,9.29,2 
SCCF RECON,ioos:station:SCCF:12:1,2010-01-10T13:00:00Z,26.4966,-82.1479,2.5,9.18,2 
SCCF RECON,ioos:station:SCCF:12:1,2010-01-10T14:00:00Z,26.4966,-82.1479,2.5,9.12,2 
SCCF RECON,ioos:station:SCCF:12:1,2010-01-10T15:00:00Z,26.4966,-82.1479,2.5,9.16,2 
SCCF RECON,ioos:station:SCCF:12:1,2010-01-10T16:00:00Z,26.4966,-82.1479,2.5,9.17,2 
SCCF RECON,ioos:station:SCCF:12:1,2010-01-10T17:00:00Z,26.4966,-82.1479,2.5,9.22,2 
SCCF RECON,ioos:station:SCCF:12:1,2010-01-10T18:00:00Z,26.4966,-82.1479,2.5,9.24,2 
SCCF RECON,ioos:station:SCCF:12:1,2010-01-10T19:00:00Z,26.4966,-82.1479,2.5,9.36,2 
SCCF RECON,ioos:station:SCCF:12:1,2010-01-10T20:00:00Z,26.4966,-82.1479,2.5,9.54,2 
SCCF RECON,ioos:station:SCCF:12:1,2010-01-10T21:00:00Z,26.4966,-82.1479,2.5,9.62,2 
SCCF RECON,ioos:station:SCCF:12:1,2010-01-10T22:00:00Z,26.4966,-82.1479,2.5,9.65,2 
SCCF RECON,ioos:station:SCCF:12:1,2010-01-10T23:00:00Z,26.4966,-82.1479,2.5,9.37,2 
SCCF RECON,ioos:station:SCCF:12:1,2010-01-11T00:00:00Z,26.4966,-82.1479,2.5,9.25,2 
SCCF RECON,ioos:station:SCCF:12:1,2010-01-11T01:00:00Z,26.4966,-82.1479,2.5,9.27,2 
SCCF RECON,ioos:station:SCCF:12:1,2010-01-11T02:00:00Z,26.4966,-82.1479,2.5,9.4,2 
SCCF RECON,ioos:station:SCCF:12:1,2010-01-11T03:00:00Z,26.4966,-82.1479,2.5,9.36,2 
SCCF RECON,ioos:station:SCCF:12:1,2010-01-11T04:00:00Z,26.4966,-82.1479,2.5,9.35,2 
SCCF RECON,ioos:station:SCCF:12:1,2010-01-11T05:00:00Z,26.4966,-82.1479,2.5,9.2,2 
SCCF RECON,ioos:station:SCCF:12:1,2010-01-11T06:00:00Z,26.4966,-82.1479,2.5,9.25,2 
SCCF RECON,ioos:station:SCCF:12:1,2010-01-11T07:00:00Z,26.4966,-82.1479,2.5,9.09,2 
SCCF RECON,ioos:station:SCCF:12:1,2010-01-11T08:00:00Z,26.4966,-82.1479,2.5,9.05,2 
SCCF RECON,ioos:station:SCCF:12:1,2010-01-11T09:00:00Z,26.4966,-82.1479,2.5,9.02,2 
SCCF RECON,ioos:station:SCCF:12:1,2010-01-11T10:00:00Z,26.4966,-82.1479,2.5,8.74,2 
SCCF RECON,ioos:station:SCCF:12:1,2010-01-11T11:00:00Z,26.4966,-82.1479,2.5,8.51,2 
SCCF RECON,ioos:station:SCCF:12:1,2010-01-11T12:00:00Z,26.4966,-82.1479,2.5,8.32,2 
SCCF RECON,ioos:station:SCCF:12:1,2010-01-11T13:00:00Z,26.4966,-82.1479,2.5,7.86,2 
SCCF RECON,ioos:station:SCCF:12:1,2010-01-11T14:00:00Z,26.4966,-82.1479,2.5,7.72,2 
SCCF RECON,ioos:station:SCCF:12:1,2010-01-11T15:00:00Z,26.4966,-82.1479,2.5,7.78,2 
SCCF RECON,ioos:station:SCCF:12:1,2010-01-11T16:00:00Z,26.4966,-82.1479,2.5,7.82,2 
SCCF RECON,ioos:station:SCCF:12:1,2010-01-11T17:00:00Z,26.4966,-82.1479,2.5,8.08,2 
SCCF RECON,ioos:station:SCCF:12:1,2010-01-11T18:00:00Z,26.4966,-82.1479,2.5,8.3,2 
SCCF RECON,ioos:station:SCCF:12:1,2010-01-11T19:00:00Z,26.4966,-82.1479,2.5,8.74,2 
SCCF RECON,ioos:station:SCCF:12:1,2010-01-11T20:00:00Z,26.4966,-82.1479,2.5,9.13,2 
SCCF RECON,ioos:station:SCCF:12:1,2010-01-11T21:00:00Z,26.4966,-82.1479,2.5,9.19,2 
SCCF RECON,ioos:station:SCCF:12:1,2010-01-11T22:00:00Z,26.4966,-82.1479,2.5,9.08,2 
SCCF RECON,ioos:station:SCCF:12:1,2010-01-11T23:00:00Z,26.4966,-82.1479,2.5,8.59,2 
SCCF RECON,ioos:station:SCCF:12:1,2010-01-12T00:00:00Z,26.4966,-82.1479,2.5,8.3,2 
SCCF RECON,ioos:station:SCCF:12:1,2010-01-12T01:00:00Z,26.4966,-82.1479,2.5,8.62,2 
SCCF RECON,ioos:station:SCCF:12:1,2010-01-12T02:00:00Z,26.4966,-82.1479,2.5,9.4,2 
SCCF RECON,ioos:station:SCCF:12:1,2010-01-12T03:00:00Z,26.4966,-82.1479,2.5,9.46,2 
SCCF RECON,ioos:station:SCCF:12:1,2010-01-12T04:00:00Z,26.4966,-82.1479,2.5,9.41,2 
SCCF RECON,ioos:station:SCCF:12:1,2010-01-12T05:00:00Z,26.4966,-82.1479,2.5,9.52,2 
SCCF RECON,ioos:station:SCCF:12:1,2010-01-12T06:00:00Z,26.4966,-82.1479,2.5,9.53,2 
SCCF RECON,ioos:station:SCCF:12:1,2010-01-12T07:00:00Z,26.4966,-82.1479,2.5,9.54,2 
SCCF RECON,ioos:station:SCCF:12:1,2010-01-12T08:00:00Z,26.4966,-82.1479,2.5,9.43,2 
SCCF RECON,ioos:station:SCCF:12:1,2010-01-12T09:00:00Z,26.4966,-82.1479,2.5,9.36,2 
SCCF RECON,ioos:station:SCCF:12:1,2010-01-12T10:00:00Z,26.4966,-82.1479,2.5,9.32,2 
SCCF RECON,ioos:station:SCCF:12:1,2010-01-12T11:00:00Z,26.4966,-82.1479,2.5,8.98,2 
SCCF RECON,ioos:station:SCCF:12:1,2010-01-12T12:00:00Z,26.4966,-82.1479,2.5,8.93,2 
SCCF RECON,ioos:station:SCCF:12:1,2010-01-12T13:00:00Z,26.4966,-82.1479,2.5,8.66,2 
SCCF RECON,ioos:station:SCCF:12:1,2010-01-12T14:00:00Z,26.4966,-82.1479,2.5,8.81,2 
SCCF RECON,ioos:station:SCCF:12:1,2010-01-12T15:00:00Z,26.4966,-82.1479,2.5,8.88,2 
SCCF RECON,ioos:station:SCCF:12:1,2010-01-12T16:00:00Z,26.4966,-82.1479,2.5,8.97,2 
SCCF RECON,ioos:station:SCCF:12:1,2010-01-12T17:00:00Z,26.4966,-82.1479,2.5,8.96,2 